Manchester, NH

12:37 PM EDT on August 23, 2017 (GMT -0400)
Manchester

Weather History for KMHT - January, 2014

Change the Weather History Date:

Tuesday, January 21, 2014

  Actual Average Record
Temperature  
Mean Temperature 10 °F 24 °F  
Max Temperature 14 °F 33 °F 57 °F (2006)
Min Temperature 6 °F 15 °F -18 °F (1971)
Degree Days  
Heating Degree Days 55 41  
Month to date heating degree days 853  
Since 1 July heating degree days 3221  
Cooling Degree Days 0 0  
Month to date cooling degree days 0  
Year to date cooling degree days 0  
Moisture  
Dew Point -2 °F    
Average Humidity 58    
Maximum Humidity 77    
Minimum Humidity 42    
Precipitation  
Precipitation 0.00 in 0.10 in 1.56 in (1964)
Month to date precipitation 2.15  
Year to date precipitation 2.15  
Snow  
Snow 0.00 in - - ()
Month to date snowfall  
Since 1 July snowfall  
Snow Depth 5.00 in    
Sea Level Pressure  
Sea Level Pressure 30.04 in    
Wind  
Wind Speed 11 mph (NNW)    
Max Wind Speed 14 mph    
Max Gust Speed -    
Visibility 8 miles    
Events Snow    
T = Trace of Precipitation, MM = Missing Value Source: NWS Daily Summary

Daily Weather History Graph

Daily Weather History Graph

Search for Another Location

Airport or City:

Trip Planner

Search our weather history database for the weather conditions in past years. The results will help you decide how hot, cold, wet, or windy it might be!

Date:

Astronomy

Jan. 21, 2014 Rise Set
Actual Time 7:10 AM EST 4:44 PM EST
Civil Twilight 6:39 AM EST 5:15 PM EST
Nautical Twilight 6:04 AM EST 5:49 PM EST
Astronomical Twilight 5:31 AM EST 6:23 PM EST
Moon 10:23 PM EST (1/21) 9:29 AM EST (1/21)
Length of Visible Light 10h 35m
Length of Day
9h 33m
Waning Gibbous, 75% of the Moon is Illuminated
Jan 21
Waning Gibbous
Jan 24
Last Quarter
Jan 30
New
Feb 6
First Quarter
Feb 14
Full

Hourly Weather History & Observations

Time (EST) Temp. Windchill Dew Point Humidity Pressure Visibility Wind Dir Wind Speed Gust Speed Precip Events Conditions
12:53 AM 14.0 °F 0.5 °F 3.0 °F 62% 29.95 in 10.0 mi NNW 11.5 mph - N/A   Mostly Cloudy
1:53 AM 12.9 °F 2.6 °F 1.0 °F 59% 30.00 in 10.0 mi NNW 6.9 mph - N/A   Mostly Cloudy
2:53 AM 10.9 °F -4.7 °F -0.9 °F 59% 30.02 in 10.0 mi North 13.8 mph - N/A   Overcast
3:53 AM 9.0 °F -7.3 °F -2.9 °F 59% 30.03 in 10.0 mi North 13.8 mph - N/A   Overcast
4:53 AM 8.1 °F -7.0 °F -4.0 °F 58% 30.05 in 10.0 mi North 11.5 mph - N/A   Mostly Cloudy
5:53 AM 7.0 °F -6.6 °F -5.1 °F 58% 30.07 in 10.0 mi NW 9.2 mph - N/A   Mostly Cloudy
6:53 AM 7.0 °F -7.5 °F -5.1 °F 58% 30.09 in 10.0 mi NNW 10.4 mph - N/A   Mostly Cloudy
7:53 AM 6.1 °F -8.7 °F -6.0 °F 58% 30.09 in 10.0 mi NNW 10.4 mph - N/A   Mostly Cloudy
8:53 AM 7.0 °F -6.6 °F -6.0 °F 55% 30.12 in 10.0 mi NW 9.2 mph - N/A   Mostly Cloudy
9:53 AM 8.1 °F -8.4 °F -6.0 °F 53% 30.11 in 10.0 mi NNW 13.8 mph - N/A   Overcast
10:53 AM 9.0 °F -3.2 °F -7.1 °F 48% 30.12 in 10.0 mi WNW 8.1 mph - N/A   Overcast
11:53 AM 10.9 °F -1.8 °F -6.0 °F 47% 30.10 in 10.0 mi NW 9.2 mph - N/A   Overcast
12:53 PM 10.9 °F -1.8 °F -7.1 °F 44% 30.10 in 10.0 mi NW 9.2 mph - N/A   Overcast
1:53 PM 12.0 °F 1.5 °F -7.1 °F 42% 30.08 in 10.0 mi NNW 6.9 mph - N/A   Overcast
2:53 PM 12.0 °F 0.5 °F -6.0 °F 44% 30.05 in 10.0 mi NNW 8.1 mph - N/A   Overcast
3:53 PM 12.0 °F -2.7 °F -6.0 °F 44% 30.03 in 10.0 mi North 12.7 mph - N/A   Overcast
4:53 PM 12.0 °F -0.4 °F -5.1 °F 46% 30.04 in 10.0 mi North 9.2 mph - N/A   Overcast
5:53 PM 12.0 °F -0.4 °F -5.1 °F 46% 30.05 in 10.0 mi NNW 9.2 mph - N/A   Overcast
6:53 PM 10.9 °F -1.8 °F -5.1 °F 49% 30.05 in 10.0 mi North 9.2 mph - N/A   Overcast
7:53 PM 10.9 °F -2.6 °F -0.0 °F 61% 30.05 in 7.0 mi NNW 10.4 mph - 0.00 in Snow Light Snow
8:47 PM 10.4 °F -4.1 °F 1.4 °F 67% 29.98 in 2.0 mi North 11.5 mph - 0.00 in Snow Light Snow
8:53 PM 10.9 °F -1.8 °F 1.9 °F 67% 30.05 in 1.8 mi NNW 9.2 mph - 0.00 in Snow Light Snow
9:14 PM 10.0 °F -3.7 °F 3.9 °F 76% 29.97 in 2.0 mi NNW 10.4 mph - 0.00 in Snow Light Snow
9:29 PM 10.0 °F -3.7 °F 3.9 °F 76% 29.97 in 3.0 mi NNW 10.4 mph - 0.00 in Snow Light Snow
9:53 PM 10.0 °F -4.5 °F 3.0 °F 73% 30.04 in 3.0 mi NNW 11.5 mph - 0.00 in Snow Light Snow
10:40 PM 9.0 °F -6.6 °F 3.0 °F 77% 29.95 in 2.0 mi NNW 12.7 mph - 0.00 in Snow Light Snow
10:53 PM 9.0 °F -6.6 °F 3.0 °F 77% 30.01 in 2.0 mi NNW 12.7 mph - 0.00 in Snow Light Snow
11:53 PM 9.0 °F -6.6 °F 1.9 °F 73% 29.97 in 5.0 mi North 12.7 mph - 0.00 in Snow Light Snow